COSMOS 1833

Last updated on Sun Jun 21 2026 00:02:15 GMT+0000 (Coordinated Universal Time)

1 17589U 87027A 26171.29383227 .00000337 00000+0 20577-3 0 9993 2 17589 70.9187 110.3381 0022894 49.9325 310.3799 14.13052434 24812
UTC large
Height (km)
Speed (km/s)
/
Latitude / Longitude
Inclination (degrees)
Orbital Period (minutes)
Azimuth
Elevation
Range (km)
Doppler Factor

Next 0 passes for location: London (51.5072 / 0.1276)

No passes found over London.
COSMOS 1833